Location: Bourg-d�Oueil
(42.8588°N, 0.4991°E)
Time: 18:06:53
(UTC+00:00)

Tiangong - Pass Details

Date: 02 December 2022
Orbit: 383 x 386 km, 41.5° (Epoch: 29 January)

Event Time Altitude Azimuth Distance (km) Brightness Sun altitude
Rises 18:13:59 0° 252° (WSW) 2,256 3.4 -19.5°
Reaches altitude 10° 18:16:04 10° 248° (WSW) 1,405 1.9 -19.9°
Enters shadow 18:18:56 53° 192° (SSW) 480 -1.6 -20.4°
